Location: Newark
(45.0242°N, 16.0939°E)
Time: 03:08:57
(UTC+00:00)

Envisat - Pass Details

Date: 27 September 2019
Orbit: 764 x 766 km, 98.1° (Epoch: 18 October)

Event Time Altitude Azimuth Distance (km) Brightness Sun altitude
Rises 18:23:21 0° 212° (SSW) 3,221 6.4 -18.1°
Reaches altitude 10° 18:26:34 10° 234° (SW) 2,300 5.9 -18.7°
Maximum altitude 18:29:36 16° 271° (W) 1,928 6.0 -19.2°
Drops below altitude 10° 18:32:39 10° 308° (NW) 2,310 6.5 -19.7°
Sets 18:35:55 0° 330° (NNW) 3,242 7.0 -20.2°
